Total_Precipitation_Accumulation
0.02 0.08 0.27 0.42 0.43 0.43 0.42 0.40 0.38 0.33 0.32 0.37 0.42 0.45 0.48 0.45 0.41 0.37 0.36 0.38 0.40 0.43 0.49 0.56 0.59 0.60 0.57 0.54 0.50 0.43 0.41 0.44 0.45 0.42 0.46 0.51 0.52 0.46 0.41 0.37 0.28 0.35 0.53
0.02 0.09 0.25 0.33 0.36 0.39 0.41 0.39 0.36 0.32 0.31 0.36 0.40 0.40 0.41 0.41 0.41 0.42 0.40 0.39 0.39 0.44 0.52 0.59 0.59 0.58 0.58 0.53 0.47 0.38 0.34 0.33 0.34 0.33 0.30 0.28 0.43 0.48 0.42 0.43 0.39 0.59 0.68
0.02 0.07 0.17 0.27 0.32 0.36 0.38 0.36 0.34 0.35 0.34 0.37 0.38 0.38 0.37 0.38 0.39 0.43 0.44 0.43 0.42 0.41 0.44 0.51 0.55 0.53 0.50 0.43 0.36 0.31 0.32 0.27 0.23 0.24 0.22 0.16 0.34 0.57 0.54 0.52 0.50 0.69 0.68
0.02 0.06 0.11 0.22 0.29 0.33 0.36 0.36 0.37 0.38 0.39 0.43 0.42 0.39 0.39 0.40 0.39 0.42 0.44 0.43 0.43 0.42 0.42 0.44 0.43 0.43 0.38 0.30 0.28 0.29 0.31 0.26 0.19 0.15 0.08 0.09 0.31 0.60 0.64 0.59 0.55 0.60 0.64
0.02 0.05 0.12 0.23 0.28 0.32 0.37 0.37 0.38 0.39 0.42 0.47 0.47 0.44 0.44 0.45 0.44 0.43 0.42 0.42 0.39 0.39 0.39 0.41 0.38 0.36 0.33 0.30 0.28 0.29 0.30 0.26 0.19 0.12 0.05 0.07 0.25 0.54 0.54 0.53 0.49 0.53 0.56
0.02 0.04 0.12 0.23 0.30 0.32 0.35 0.36 0.37 0.39 0.43 0.48 0.47 0.46 0.46 0.49 0.47 0.44 0.42 0.41 0.37 0.37 0.38 0.39 0.36 0.35 0.32 0.29 0.29 0.34 0.36 0.32 0.20 0.10 0.06 0.07 0.15 0.37 0.48 0.53 0.51 0.49 0.45
0.03 0.05 0.12 0.25 0.33 0.35 0.37 0.38 0.40 0.42 0.44 0.46 0.47 0.48 0.49 0.51 0.50 0.46 0.41 0.39 0.36 0.34 0.36 0.38 0.35 0.35 0.35 0.32 0.31 0.36 0.42 0.34 0.19 0.20 0.15 0.12 0.16 0.29 0.40 0.50 0.52 0.50 0.48
0.04 0.07 0.16 0.31 0.37 0.38 0.41 0.40 0.43 0.46 0.49 0.48 0.46 0.48 0.52 0.56 0.52 0.48 0.44 0.41 0.39 0.37 0.35 0.32 0.28 0.27 0.30 0.32 0.33 0.34 0.38 0.27 0.21 0.27 0.30 0.25 0.24 0.34 0.42 0.47 0.51 0.52 0.55
0.06 0.10 0.19 0.33 0.40 0.46 0.48 0.46 0.47 0.51 0.54 0.53 0.52 0.51 0.52 0.55 0.53 0.49 0.43 0.42 0.40 0.38 0.36 0.31 0.27 0.25 0.25 0.24 0.26 0.29 0.30 0.27 0.31 0.42 0.36 0.38 0.34 0.45 0.51 0.48 0.48 0.53 0.57
0.10 0.14 0.21 0.30 0.39 0.44 0.49 0.49 0.50 0.50 0.53 0.55 0.55 0.55 0.52 0.51 0.53 0.50 0.42 0.41 0.41 0.40 0.38 0.36 0.32 0.28 0.26 0.23 0.20 0.22 0.24 0.22 0.24 0.32 0.41 0.35 0.36 0.54 0.65 0.60 0.52 0.52 0.56
0.18 0.21 0.27 0.33 0.40 0.47 0.51 0.49 0.54 0.56 0.56 0.59 0.58 0.58 0.58 0.53 0.51 0.48 0.43 0.39 0.39 0.40 0.39 0.37 0.35 0.34 0.31 0.24 0.20 0.19 0.18 0.14 0.19 0.28 0.33 0.30 0.38 0.58 0.75 0.72 0.66 0.58 0.57
0.20 0.24 0.30 0.35 0.43 0.52 0.56 0.58 0.62 0.61 0.57 0.58 0.52 0.53 0.55 0.55 0.53 0.46 0.43 0.41 0.41 0.43 0.45 0.43 0.39 0.36 0.33 0.24 0.21 0.22 0.15 0.09 0.09 0.11 0.14 0.19 0.29 0.46 0.72 0.80 0.78 0.73 0.69
0.18 0.26 0.32 0.39 0.45 0.53 0.58 0.60 0.60 0.62 0.58 0.56 0.51 0.50 0.51 0.55 0.53 0.50 0.49 0.50 0.48 0.45 0.46 0.49 0.51 0.46 0.42 0.35 0.29 0.27 0.18 0.14 0.11 0.08 0.07 0.12 0.17 0.29 0.48 0.65 0.82 0.85 0.87
0.20 0.28 0.35 0.42 0.51 0.58 0.60 0.63 0.60 0.57 0.56 0.52 0.52 0.51 0.51 0.50 0.48 0.44 0.42 0.41 0.42 0.40 0.40 0.43 0.45 0.47 0.49 0.47 0.38 0.31 0.28 0.26 0.19 0.15 0.11 0.14 0.16 0.23 0.38 0.52 0.68 0.83 0.93
0.19 0.29 0.38 0.46 0.52 0.60 0.68 0.65 0.62 0.57 0.52 0.51 0.53 0.52 0.49 0.48 0.46 0.43 0.40 0.40 0.39 0.35 0.34 0.36 0.35 0.32 0.34 0.39 0.39 0.34 0.31 0.27 0.24 0.24 0.20 0.21 0.18 0.19 0.31 0.44 0.57 0.74 0.90
0.21 0.31 0.40 0.50 0.55 0.60 0.67 0.66 0.63 0.59 0.56 0.55 0.52 0.51 0.51 0.51 0.47 0.43 0.40 0.37 0.39 0.38 0.35 0.33 0.32 0.30 0.26 0.24 0.22 0.22 0.26 0.27 0.28 0.28 0.25 0.24 0.22 0.19 0.25 0.37 0.50 0.65 0.86
0.25 0.34 0.44 0.49 0.57 0.60 0.66 0.70 0.68 0.64 0.60 0.60 0.57 0.53 0.55 0.56 0.56 0.51 0.47 0.40 0.37 0.37 0.37 0.38 0.37 0.34 0.30 0.25 0.21 0.19 0.18 0.19 0.22 0.25 0.25 0.25 0.27 0.23 0.22 0.31 0.42 0.53 0.70
0.29 0.38 0.49 0.53 0.58 0.62 0.65 0.73 0.72 0.71 0.64 0.64 0.65 0.62 0.57 0.57 0.59 0.59 0.58 0.54 0.48 0.44 0.41 0.41 0.40 0.38 0.34 0.29 0.25 0.21 0.20 0.20 0.18 0.19 0.21 0.23 0.27 0.28 0.26 0.30 0.38 0.47 0.58
0.26 0.36 0.51 0.58 0.62 0.65 0.67 0.74 0.81 0.79 0.74 0.69 0.70 0.70 0.64 0.62 0.61 0.60 0.59 0.60 0.63 0.60 0.51 0.46 0.42 0.37 0.35 0.31 0.28 0.26 0.24 0.22 0.21 0.21 0.19 0.17 0.18 0.22 0.27 0.29 0.32 0.40 0.47
0.26 0.36 0.50 0.64 0.71 0.74 0.79 0.80 0.90 0.92 0.83 0.77 0.73 0.75 0.72 0.67 0.66 0.66 0.63 0.61 0.63 0.66 0.63 0.54 0.47 0.42 0.38 0.35 0.32 0.31 0.30 0.28 0.24 0.21 0.19 0.17 0.15 0.17 0.21 0.24 0.27 0.31 0.36
0.32 0.38 0.50 0.61 0.75 0.80 0.86 0.85 0.83 0.89 0.88 0.82 0.75 0.78 0.87 0.81 0.71 0.70 0.71 0.71 0.67 0.63 0.59 0.56 0.53 0.50 0.47 0.44 0.44 0.42 0.37 0.34 0.33 0.27 0.21 0.18 0.17 0.16 0.18 0.22 0.25 0.26 0.29
0.33 0.37 0.48 0.62 0.73 0.77 0.77 0.84 0.82 0.85 0.86 0.87 0.82 0.82 0.88 0.94 0.86 0.76 0.73 0.74 0.72 0.65 0.61 0.56 0.55 0.58 0.57 0.49 0.47 0.50 0.50 0.46 0.39 0.31 0.26 0.20 0.17 0.15 0.15 0.18 0.23 0.24 0.24
0.30 0.34 0.40 0.56 0.74 0.80 0.78 0.88 0.95 1.02 1.06 1.02 0.95 0.88 0.89 0.92 0.90 0.83 0.75 0.69 0.72 0.70 0.66 0.60 0.57 0.57 0.60 0.55 0.46 0.55 0.65 0.54 0.38 0.31 0.27 0.23 0.19 0.16 0.14 0.14 0.18 0.23 0.25
0.32 0.36 0.38 0.47 0.64 0.83 0.86 0.88 0.94 0.98 1.00 1.04 0.96 0.88 0.86 0.91 0.93 0.88 0.85 0.78 0.71 0.68 0.65 0.61 0.60 0.59 0.63 0.64 0.54 0.47 0.49 0.50 0.54 0.43 0.31 0.29 0.28 0.23 0.18 0.15 0.16 0.20 0.27
0.39 0.46 0.45 0.50 0.58 0.78 0.82 0.81 0.87 0.91 0.92 1.00 1.03 0.96 0.92 0.94 0.98 0.99 0.96 0.91 0.85 0.76 0.67 0.62 0.62 0.64 0.65 0.66 0.60 0.52 0.45 0.39 0.41 0.53 0.43 0.35 0.38 0.36 0.31 0.25 0.23 0.24 0.27
0.44 0.55 0.55 0.58 0.58 0.69 0.84 0.80 0.79 0.83 0.86 0.92 0.98 1.03 1.03 1.01 1.01 1.01 1.01 0.96 0.90 0.89 0.81 0.70 0.66 0.67 0.66 0.64 0.64 0.59 0.58 0.56 0.47 0.49 0.48 0.36 0.35 0.34 0.34 0.36 0.34 0.34 0.35